CW8504 Weather Reports


Display with metric or nautical units.
time (UTC)temp
F
wind
direction
speed
MPH
gust
MPH
rain 1hr
in
rain 24hr
in
rain mn
in
humidity
%
barometer
mb
20260508190907 65 231 5.0 10.0 0.00 0.00 0.00 17 1016.2
20260508190404 65 227 1.0 12.0 0.00 0.00 0.00 19 1016.3
20260508185904 65 244 2.0 6.0 0.00 0.00 0.00 18 1016.3
20260508185404 65 220 1.0 8.0 0.00 0.00 0.00 18 1016.3
20260508184904 66 228 7.0 12.0 0.00 0.00 0.00 18 1016.4
20260508184404 66 214 4.0 9.0 0.00 0.00 0.00 17 1016.3
20260508183904 66 218 6.0 12.0 0.00 0.00 0.00 17 1016.3
20260508183404 67 235 6.0 13.0 0.00 0.00 0.00 17 1016.4
20260508182407 67 212 5.0 10.0 0.00 0.00 0.00 17 1016.4
20260508180404 66 198 1.0 5.0 0.00 0.00 0.00 17 1016.7
20260508175904 67 271 1.0 6.0 0.00 0.00 0.00 18 1016.7
20260508175404 66 11 0.0 3.0 0.00 0.00 0.00 17 1016.7
20260508174404 66 268 0.0 3.0 0.00 0.00 0.00 19 1016.7
20260508173904 65 180 0.0 2.0 0.00 0.00 0.00 21 1016.8
20260508173404 65 210 0.0 3.0 0.00 0.00 0.00 20 1016.8
20260508172905 65 233 4.0 6.0 0.00 0.00 0.00 20 1016.9
20260508172403 65 256 0.0 3.0 0.00 0.00 0.00 21 1017.0
20260508171911 64 224 0.0 6.0 0.00 0.00 0.00 22 1017.1
20260508171404 64 228 0.0 0.0 0.00 0.00 0.00 22 1017.1
20260508170904 64 228 0.0 0.0 0.00 0.00 0.00 23 1017.2
20260508170403 63 230 0.0 0.0 0.00 0.00 0.00 25 1017.2
20260508165404 62 247 0.0 0.0 0.00 0.00 0.00 26 1017.2
20260508164907 62 28 0.0 0.0 0.00 0.00 0.00 31 1017.2
20260508163904 60 28 0.0 0.0 0.00 0.00 0.00 32 1017.3
20260508163404 60 30 0.0 0.0 0.00 0.00 0.00 33 1017.3
20260508162904 59 30 0.0 0.0 0.00 0.00 0.00 32 1017.4
20260508162404 59 30 0.0 0.0 0.00 0.00 0.00 33 1017.5
20260508161904 59 30 0.0 0.0 0.00 0.00 0.00 36 1017.6
20260508161404 58 30 0.0 0.0 0.00 0.00 0.00 35 1017.5
20260508160904 57 30 0.0 0.0 0.00 0.00 0.00 36 1017.6
20260508160404 57 30 0.0 0.0 0.00 0.00 0.00 38 1017.6
20260508155904 56 30 0.0 0.0 0.00 0.00 0.00 40 1017.7
20260508155404 56 30 0.0 0.0 0.00 0.00 0.00 39 1017.7
20260508154405 54 30 0.0 0.0 0.00 0.00 0.00 43 1017.8
20260508153904 54 30 0.0 0.0 0.00 0.00 0.00 43 1018.0
20260508153404 53 30 0.0 0.0 0.00 0.00 0.00 44 1017.9
20260508152404 51 30 0.0 0.0 0.00 0.00 0.00 46 1018.0
20260508151904 50 30 0.0 0.0 0.00 0.00 0.00 46 1018.1
20260508151404 49 30 0.0 0.0 0.00 0.00 0.00 47 1018.1
20260508150904 48 30 0.0 0.0 0.00 0.00 0.00 49 1018.2
20260508150404 47 30 0.0 0.0 0.00 0.00 0.00 50 1018.1
20260508145404 45 30 0.0 0.0 0.00 0.00 0.00 56 1018.2
20260508144904 44 30 0.0 0.0 0.00 0.00 0.00 58 1018.3
20260508144404 43 36 0.0 0.0 0.00 0.00 0.00 62 1018.3
20260508143404 40 194 0.0 0.0 0.00 0.00 0.00 65 1018.4
20260508142904 40 194 0.0 0.0 0.00 0.00 0.00 67 1018.5
20260508142404 39 194 0.0 0.0 0.00 0.00 0.00 68 1018.5
20260508141904 39 196 0.0 0.0 0.00 0.00 0.00 69 1018.6
20260508141404 39 196 0.0 0.0 0.00 0.00 0.00 69 1018.5
20260508140905 38 196 0.0 0.0 0.00 0.00 0.00 71 1018.5
20260508140404 38 196 0.0 0.0 0.00 0.00 0.00 72 1018.6
20260508135404 37 196 0.0 0.0 0.00 0.00 0.00 74 1018.7
20260508134904 37 196 0.0 0.0 0.00 0.00 0.00 75 1018.6
20260508134404 36 196 0.0 0.0 0.00 0.00 0.00 75 1018.7
20260508133404 34 202 0.0 0.0 0.00 0.00 0.00 76 1018.6
20260508132904 34 202 0.0 0.0 0.00 0.00 0.00 76 1018.6
20260508132404 33 202 0.0 0.0 0.00 0.00 0.00 76 1018.6
20260508131404 32 202 0.0 0.0 0.00 0.00 0.00 76 1018.6
20260508130904 32 204 0.0 0.0 0.00 0.00 0.00 75 1018.5
20260508130404 31 205 0.0 0.0 0.00 0.00 0.00 74 1018.5
20260508125911 31 204 0.0 0.0 0.00 0.00 0.00 75 1018.4
20260508125404 31 204 0.0 0.0 0.00 0.00 0.00 74 1018.3
20260508124904 31 204 0.0 0.0 0.00 0.00 0.00 74 1018.3
20260508124404 31 204 0.0 0.0 0.00 0.00 0.00 74 1018.2
20260508123904 31 204 0.0 0.0 0.00 0.00 0.00 74 1018.2
20260508123404 31 204 0.0 0.0 0.00 0.00 0.00 74 1018.2
20260508122904 31 204 0.0 0.0 0.00 0.00 0.00 74 1018.2
20260508122404 31 204 0.0 0.0 0.00 0.00 0.00 74 1018.1
20260508121904 31 204 0.0 0.0 0.00 0.00 0.00 73 1018.0
20260508121404 32 204 0.0 0.0 0.00 0.00 0.00 73 1017.9
20260508120904 32 204 0.0 0.0 0.00 0.00 0.00 73 1017.9
20260508120404 32 204 0.0 0.0 0.00 0.00 0.00 73 1017.8
20260508115904 32 204 0.0 0.0 0.00 0.00 0.00 73 1017.8
20260508115404 32 204 0.0 0.0 0.00 0.00 0.00 73 1017.8
20260508114904 32 204 0.0 0.0 0.00 0.00 0.00 73 1017.7
20260508114404 32 204 0.0 0.0 0.00 0.00 0.00 73 1017.7
20260508113404 33 204 0.0 0.0 0.00 0.00 0.00 74 1017.7
20260508112904 33 204 0.0 0.0 0.00 0.00 0.00 74 1017.6
20260508111905 33 246 0.0 0.0 0.00 0.00 0.00 73 1017.8
20260508111404 33 246 0.0 0.0 0.00 0.00 0.00 73 1017.8
20260508110904 33 246 0.0 0.0 0.00 0.00 0.00 73 1017.7
20260508110404 33 246 0.0 0.0 0.00 0.00 0.00 73 1017.8
20260508105904 33 246 0.0 0.0 0.00 0.00 0.00 73 1017.7
20260508105407 33 245 0.0 0.0 0.00 0.00 0.00 73 1017.7
20260508104904 33 245 0.0 0.0 0.00 0.00 0.00 73 1017.6
20260508104404 34 242 0.0 0.0 0.00 0.00 0.00 72 1017.6
20260508103905 34 242 0.0 0.0 0.00 0.00 0.00 72 1017.5
20260508102404 34 242 0.0 0.0 0.00 0.00 0.00 72 1017.5
20260508101904 34 242 0.0 0.0 0.00 0.00 0.00 71 1017.5
20260508100404 34 242 0.0 0.0 0.00 0.00 0.00 71 1017.4
20260508095904 35 242 0.0 0.0 0.00 0.00 0.00 70 1017.3
20260508095404 35 242 0.0 0.0 0.00 0.00 0.00 70 1017.3